Regional Weather Roundup
Issued by NWS Charleston, SC

Current Version | Previous Version | Text Only | Print | Product List | Glossary Off
Versions: 1 2 3 4 5 6 7 8 9 10 11 12 13 14 15 16 17 18 19 20 21 22 23 24 25 26 27 28 29 30 31 32 33 34 35 36 37 38 39 40 41 42 43 44 45 46 47 48 49 50
512 ASUS42 KCHS 271027 RWRCHS REGIONAL WEATHER ROUNDUP NATIONAL WEATHER SERVICE CHARLESTON SC 600 AM EDT THU APR 27 2017 NOTE: "FAIR" INDICATES FEW OR NO CLOUDS BELOW 12,000 FEET WITH NO SIGNIFICANT WEATHER AND/OR OBSTRUCTIONS TO VISIBILITY. NOT ALL STATIONS ARE QUALITY CONTROLLED. USE DATA WITH CAUTION... ESPECIALLY DEWPOINT OBSERVATIONS. SCZ027-030-031-034>040-042>050-271100- ...SOUTHEAST SOUTH CAROLINA... CITY SKY/WX TMP DP RH WIND PRES REMARKS N CHARLESTON PTCLDY 64 62 93 S6 29.88S WATERFRONT PRK N/A 71 67 87 SW7 29.87S JOHNS ISLAND FAIR 70 66 88 S6 29.88S PINOPOLIS N/A 66 64 94 VRB3 29.79S MONCKS CORNER FAIR 57 57 100 CALM 29.88S SUMMERVILLE FAIR 61 61 100 CALM 29.88F BEAUFORT MCAS CLEAR 66 65 96 CALM 29.88S BEAUFORT ARPT FAIR 68 63 83 CALM 29.88R HILTON HEAD IS NOT AVBL WALTERBORO SUNNY 59 59 100 CALM 29.88S ALLENDALE FAIR 61 61 100 CALM 29.86R ...SOUTHERN MIDLANDS AND PEE DEE... CITY SKY/WX TMP DP RH WIND PRES REMARKS GEORGETOWN FAIR 61 59 94 S3 29.90S KINGSTREE FAIR 59 59 100 SE3 29.87F ORANGEBURG CLEAR 60 60 100 S3 29.86F BARNWELL FAIR 63 63 100 S3 29.86R AIKEN FAIR 59 55 88 S5 29.89R MANNING FAIR 64 63 94 SW20G30 29.87S COLUMBIA CLEAR 62 59 90 CALM 29.83S SUMTER CLEAR 61 59 94 S3 29.84S FLORENCE CLEAR 58 57 97 S5 29.87S MYRTLE BEACH CLEAR 66 64 94 SW6 29.90S N MYRTLE BEACH CLEAR 68 66 93 SW8 29.89R $$ GAZ063-065-086>088-099>101-113>116-118-119-134>141-150-271100- ...SOUTHEAST GEORGIA... CITY SKY/WX TMP DP RH WIND PRES REMARKS SAVANNAH ARPT PTCLDY 63 60 90 S5 29.87F HUNTER AAF CLEAR 63 63 100 CALM 29.85S FORT STEWART PTCLDY 59 57 93 CALM 29.85S STATESBORO PTCLDY 58 58 100 CALM 29.87R SYLVANIA SUNNY N/A N/A N/A CALM 29.87R CLAXTON FAIR N/A N/A N/A CALM 29.87R ...CSRA...CENTRAL AND FAR SOUTHEAST GEORGIA... CITY SKY/WX TMP DP RH WIND PRES REMARKS THOMSON PTCLDY 59 56 89 SW5 29.90R AUGUSTA-BUSH CLEAR 59 57 93 CALM 29.84R AUGUSTA-DANIEL CLEAR 63 57 81 S3 29.85R SWAINSBORO FAIR 59 57 94 CALM 29.87R VIDALIA CLOUDY 61 57 88 S3 29.86R EASTMAN FAIR 63 60 91 CALM 29.87R HAZLEHURST CLOUDY 65 61 89 S5 29.85R ALMA CLOUDY 63 58 83 S3 29.85S WAYCROSS MOCLDY 66 62 87 S5 29.86R FOG JESUP CLOUDY 61 57 88 CALM 29.87S BAXLEY CLOUDY 63 63 100 CALM 29.86R BRUNSWICK PTCLDY 63 63 100 S3 29.89R SAINT SIMONS CLEAR 69 61 75 S5 29.88R $$ SCZ027-028-034-036>038-045-046-048>050-GAZ119-141-271100- ...LAKE AND SUPPLEMENTAL COASTAL OBSERVATIONS... STATION/POSITION TIME TEMP WIND PRES WAVE SWELL AIR SEA DIR/SP/G HT/PER HT/PER/DIR (UTC) (F) (DEG/KT/KT) (MB) (FT/S) (FT/S/D) WINYAH BAY 0930 68 230/ 3 1012.0S LAKE MURRAY 1020 65 240/ 5/ 7 1010.5 ACE BASIN NERRS 0930 66 CALM 1012.0S FORT PULASKI 1000 68 74 210/ 2/ 2 1011.8 SAPELO ISLAND 0945 64 CALM 1012.0S $$ ANZ835-935-AMZ111-154-330-350-352-354-370-450-454-472-271100- ...C-MAN AND BUOY OBSERVATIONS... STATION/POSITION TIME TEMP WIND PRES WAVE SWELL AIR SEA DIR/SP/G HT/PER HT/PER/DIR (UTC) (F) (DEG/KT/KT) (MB) (FT/S) (FT/S/D) BUOY 41004 1010 73 73 220/ 12/ 16 1012.1 BUOY 41008 0950 72 72 200/ 8/ 10 1011.6R 4/ 5 3/180/ 5 FOLLY BEACH CMAN 1000 71 210/ 13/ 15 1012.6R CAPERS NEARSHORE 0908 74 72 230/ 14/ 17 1011.8R FRIPP NEARSHORE 0908 72 72 210/ 12/ 16 1011.3S STATION/POSITION TIME TEMP WIND PRES WAVE SWELL AIR SEA DIR/SP/G HT/PER HT/PER/DIR (UTC) (F) (DEG/KT/KT) (MB) (FT/S) (FT/S/D) 5E ST. MARYS GA 1000 73 N/A 3/ 8 FRYING PAN BUOY 1010 73 73 240/ 6/ 8 1012.6 BUOY 41025 0950 75 77 230/ 16/ 17 1012.9R 6/ 8 3/140/ 8 CAPE LOOKOUT NC 1000 69 240/ 5/ 6 1012.8R BUOY 41002 0950 74 74 170/ 12/ 14 1015.2R 6/ 9 5/110/ 9 BUOY 41010 1010 76 78 170/ 16/ 19 1013.8 ST AUGUSTINE FL 1000 67 74 210/ 6/ 7 1013.3R $$

USA.gov is the U.S. government's official web portal to all federal, state and local government web resources and services.